Weather History for Stanley, ID

Change the Weather History Date:

Monday, May 27, 2013

  Actual Average Record
Temperature  
Mean Temperature 46 °F 46 °F  
Max Temperature 56 °F 61 °F 80 °F (1986)
Min Temperature 36 °F 31 °F 19 °F (1991)
Degree Days  
Heating Degree Days 19 19  
Month to date heating degree days 549 608  
Since 1 July heating degree days 9769 10268  
Cooling Degree Days 0 0  
Month to date cooling degree days 0 0  
Year to date cooling degree days 0 0  
Moisture  
Dew Point 34 °F    
Average Humidity 66    
Maximum Humidity 100    
Minimum Humidity 32    
Precipitation  
Precipitation 0.04 in 0.05 in 0.68 in (1970)
Month to date precipitation 0.47 1.50  
Year to date precipitation 4.75 8.34  
Sea Level Pressure  
Sea Level Pressure 29.83 in    
Wind  
Wind Speed 3 mph (WNW)    
Max Wind Speed 12 mph    
Max Gust Speed 17 mph    
T = Trace of Precipitation, MM = Missing Value Source: NWS Daily Summary

Daily Weather History Graph

Daily Weather History Graph

Search for Another Location

Airport:

Trip Planner

Search our weather history database for the weather conditions in past years. The results will help you decide how hot, cold, wet, or windy it might be!

Date:

Astronomy

May. 27, 2013 Rise Set
Actual Time 6:02 AM MDT 9:12 PM MDT
Civil Twilight 5:27 AM MDT 9:47 PM MDT
Nautical Twilight 4:41 AM MDT 10:32 PM MDT
Astronomical Twilight 3:47 AM MDT 11:27 PM MDT
Moon 11:51 PM MDT (5/27) 8:46 AM MDT (5/27)
Length of Visible Light 16h 20m
Length of Day
15h 10m
Waning Gibbous, 90% of the Moon is Illuminated
May 27
Waning Gibbous
May 31
Last Quarter
Jun 8
New
Jun 16
First Quarter
Jun 23
Full

Hourly Weather History & Observations

Time (MDT) Temp. Windchill Dew Point Humidity Pressure Visibility Wind Dir Wind Speed Gust Speed Precip Events Conditions
12:51 AM 37.9 °F - 37.0 °F 97% 29.86 in - Calm Calm - N/A   Unknown
1:51 AM 37.9 °F - 37.0 °F 97% 29.87 in - Calm Calm - N/A   Unknown
2:51 AM 37.9 °F - 36.0 °F 93% 29.87 in - Calm Calm - N/A   Unknown
3:51 AM 37.0 °F 34.5 °F 36.0 °F 96% 29.87 in - ENE 3.5 mph - 0.04 in   Unknown
4:51 AM 36.0 °F - 35.1 °F 97% 29.90 in - Calm Calm - N/A   Unknown
5:51 AM 36.0 °F - 35.1 °F 97% 29.91 in - Calm Calm - N/A   Unknown
6:51 AM 36.0 °F - 35.1 °F 97% 29.91 in - Calm Calm - N/A   Unknown
7:51 AM 37.9 °F - 36.0 °F 93% 29.91 in - Calm Calm - N/A   Unknown
8:51 AM 42.1 °F 40.2 °F 37.9 °F 85% 29.90 in - Variable 3.5 mph - N/A   Unknown
9:51 AM 43.0 °F - 34.0 °F 71% 29.89 in - Calm Calm - N/A   Unknown
10:51 AM 45.0 °F - 33.1 °F 63% 29.88 in - Calm Calm - N/A   Unknown
11:51 AM 48.0 °F - 34.0 °F 58% 29.88 in - NW 4.6 mph - N/A   Unknown
12:51 PM 50.0 °F - 32.0 °F 50% 29.85 in - NNE 3.5 mph - N/A   Unknown
1:51 PM 52.0 °F - 28.9 °F 41% 29.82 in - Variable 5.8 mph - N/A   Unknown
2:51 PM 54.0 °F - 27.0 °F 35% 29.78 in - Variable 6.9 mph - N/A   Unknown
3:51 PM 53.1 °F - 25.0 °F 34% 29.77 in - SW 5.8 mph - N/A   Unknown
4:51 PM 53.1 °F - 25.0 °F 34% 29.76 in - Variable 4.6 mph - N/A   Unknown
5:51 PM 48.9 °F - 30.9 °F 50% 29.78 in - WSW 8.1 mph - N/A   Unknown
6:51 PM 46.9 °F - 33.1 °F 59% 29.81 in - SSW 8.1 mph - N/A   Unknown
7:51 PM 44.1 °F 39.5 °F 35.1 °F 71% 29.80 in - North 8.1 mph - N/A   Unknown
8:51 PM 43.0 °F 41.3 °F 35.1 °F 74% 29.77 in - WNW 3.5 mph - N/A   Unknown
9:51 PM 42.1 °F - 36.0 °F 79% 29.76 in - Calm Calm - N/A   Unknown
10:51 PM 42.1 °F - 36.0 °F 79% 29.75 in - Calm Calm - N/A   Unknown
11:51 PM 41.0 °F - 37.0 °F 86% 29.73 in - Calm Calm - N/A   Unknown